Back to catalog

STARLINK-36912

AliveCommunicationsSSO
NORAD 67961·PAYLOAD·🇺🇸 United States

Launched Feb 25, 2026 from Vandenberg Space Force Base

Loading…

Next Passes (next 24 hours)

TLE

FreshSource: CelesTrak SupGP

Epoch: Sep 14, 2026, 14:52 UTC

1 67961C 26038A   26257.61993056 -.00056147  00000+0 -17424-2 0  2570
2 67961  97.2842 265.9758 0001556  81.0272  72.8105 15.33477439    12

Track STARLINK-36912 in real time with AllMySat

Download on the App Store